Time,TemperatureF,DewpointF,PressureIn,WindDirection,WindDirectionDegrees,WindSpeedMPH,WindSpeedGustMPH,Humidity,HourlyPrecipIn,Conditions,Clouds,dailyrainin,SoftwareType,DateUTC
2013-07-21 00:01:00,76.2,73.0,30.03,West,263,0.0,-999.0,90,-99.99,,,0.00,weatherlink.com 1.10,2013-07-21 04:01:00,
2013-07-21 00:16:00,76.2,73.0,30.04,West,263,1.0,-999.0,90,-99.99,,,0.00,weatherlink.com 1.10,2013-07-21 04:16:00,
2013-07-21 00:36:00,76.5,74.0,30.04,West,263,0.0,-999.0,90,-99.99,,,0.00,weatherlink.com 1.10,2013-07-21 04:36:00,
2013-07-21 00:46:00,76.6,74.0,30.04,West,263,1.0,-999.0,90,-99.99,,,0.00,weatherlink.com 1.10,2013-07-21 04:46:00,
2013-07-21 01:01:00,76.6,74.0,30.04,West,263,0.0,-999.0,90,-99.99,,,0.00,weatherlink.com 1.10,2013-07-21 05:01:00,
2013-07-21 01:16:00,76.4,73.0,30.04,West,263,0.0,-999.0,90,-99.99,,,0.00,weatherlink.com 1.10,2013-07-21 05:16:00,
2013-07-21 01:35:00,76.4,73.0,30.03,West,263,0.0,-999.0,90,-99.99,,,0.00,weatherlink.com 1.10,2013-07-21 05:35:00,
2013-07-21 01:46:00,76.3,73.0,30.03,West,263,0.0,-999.0,90,-99.99,,,0.00,weatherlink.com 1.10,2013-07-21 05:46:00,
2013-07-21 02:01:00,76.2,73.0,30.03,West,263,0.0,-999.0,90,-99.99,,,0.00,weatherlink.com 1.10,2013-07-21 06:01:00,
2013-07-21 02:16:00,76.1,73.0,30.03,West,263,0.0,-999.0,91,-99.99,,,0.00,weatherlink.com 1.10,2013-07-21 06:16:00,
2013-07-21 02:35:00,76.0,73.0,30.02,West,263,0.0,-999.0,91,-99.99,,,0.00,weatherlink.com 1.10,2013-07-21 06:35:00,
2013-07-21 02:46:00,75.7,73.0,30.02,West,263,1.0,-999.0,91,-99.99,,,0.00,weatherlink.com 1.10,2013-07-21 06:46:00,
2013-07-21 03:02:00,75.5,73.0,30.02,West,263,0.0,-999.0,92,-99.99,,,0.00,weatherlink.com 1.10,2013-07-21 07:02:00,
2013-07-21 03:17:00,75.4,73.0,30.02,West,263,0.0,-999.0,92,-99.99,,,0.00,weatherlink.com 1.10,2013-07-21 07:17:00,
2013-07-21 03:36:00,75.3,73.0,30.02,West,263,2.0,-999.0,92,-99.99,,,0.00,weatherlink.com 1.10,2013-07-21 07:36:00,
2013-07-21 03:47:00,75.5,73.0,30.01,West,277,2.0,-999.0,92,-99.99,,,0.00,weatherlink.com 1.10,2013-07-21 07:47:00,
2013-07-21 04:02:00,75.5,73.0,30.01,West,280,3.0,-999.0,92,-99.99,,,0.00,weatherlink.com 1.10,2013-07-21 08:02:00,
2013-07-21 04:17:00,75.3,73.0,30.01,West,279,3.0,-999.0,92,-99.99,,,0.00,weatherlink.com 1.10,2013-07-21 08:17:00,
2013-07-21 04:36:00,75.0,72.0,30.01,West,279,1.0,-999.0,91,-99.99,,,0.00,weatherlink.com 1.10,2013-07-21 08:36:00,
2013-07-21 04:47:00,74.9,72.0,30.00,West,278,0.0,-999.0,91,-99.99,,,0.00,weatherlink.com 1.10,2013-07-21 08:47:00,
2013-07-21 05:02:00,74.7,72.0,30.01,West,277,0.0,-999.0,91,-99.99,,,0.00,weatherlink.com 1.10,2013-07-21 09:02:00,
2013-07-21 05:17:00,74.5,72.0,30.01,West,277,0.0,-999.0,91,-99.99,,,0.00,weatherlink.com 1.10,2013-07-21 09:17:00,
2013-07-21 05:36:00,74.3,72.0,30.01,West,277,0.0,-999.0,91,-99.99,,,0.00,weatherlink.com 1.10,2013-07-21 09:36:00,
2013-07-21 05:47:00,74.2,72.0,30.00,West,277,2.0,-999.0,92,-99.99,,,0.00,weatherlink.com 1.10,2013-07-21 09:47:00,
2013-07-21 06:02:00,74.1,72.0,30.02,West,277,0.0,-999.0,92,-99.99,,,0.00,weatherlink.com 1.10,2013-07-21 10:02:00,
2013-07-21 06:17:00,-999.0,-99.9,30.02,North,-999,-999.0,-999.0,-999,-99.99,,,0.00,weatherlink.com 1.10,2013-07-21 10:17:00,
2013-07-21 06:36:00,-999.0,-99.9,30.02,North,-999,-999.0,-999.0,-999,-99.99,,,0.00,weatherlink.com 1.10,2013-07-21 10:36:00,
2013-07-21 06:47:00,-999.0,-99.9,30.02,North,-999,-999.0,-999.0,-999,-99.99,,,0.00,weatherlink.com 1.10,2013-07-21 10:47:00,
2013-07-21 07:02:00,-999.0,-99.9,30.02,North,-999,-999.0,-999.0,-999,-99.99,,,0.00,weatherlink.com 1.10,2013-07-21 11:02:00,
2013-07-21 07:20:00,-999.0,-99.9,30.03,North,-999,-999.0,-999.0,-999,-99.99,,,0.00,weatherlink.com 1.10,2013-07-21 11:20:00,
2013-07-21 07:33:00,-999.0,-99.9,30.03,North,-999,-999.0,-999.0,-999,-99.99,,,0.00,weatherlink.com 1.10,2013-07-21 11:33:00,
2013-07-21 07:51:00,-999.0,-99.9,30.03,North,-999,-999.0,-999.0,-999,-99.99,,,0.00,weatherlink.com 1.10,2013-07-21 11:51:00,
2013-07-21 08:07:00,75.5,73.0,30.04,West,273,1.0,-999.0,91,-99.99,,,0.00,weatherlink.com 1.10,2013-07-21 12:07:00,
2013-07-21 08:24:00,76.0,73.0,30.05,West,267,0.0,-999.0,91,-99.99,,,0.00,weatherlink.com 1.10,2013-07-21 12:24:00,
2013-07-21 08:41:00,76.4,74.0,30.05,West,269,6.0,-999.0,91,-99.99,,,0.00,weatherlink.com 1.10,2013-07-21 12:41:00,
2013-07-21 08:57:00,76.7,74.0,30.06,West,263,3.0,-999.0,90,-99.99,,,0.00,weatherlink.com 1.10,2013-07-21 12:57:00,
2013-07-21 09:13:00,76.9,74.0,30.06,West,266,5.0,-999.0,90,-99.99,,,0.00,weatherlink.com 1.10,2013-07-21 13:13:00,
2013-07-21 09:30:00,77.2,75.0,30.07,West,277,3.0,-999.0,91,-99.99,,,0.00,weatherlink.com 1.10,2013-07-21 13:30:00,
2013-07-21 09:46:00,77.5,75.0,30.07,West,281,4.0,-999.0,91,-99.99,,,0.00,weatherlink.com 1.10,2013-07-21 13:46:00,
2013-07-21 10:03:00,78.1,75.0,30.07,West,263,3.0,-999.0,91,-99.99,,,0.00,weatherlink.com 1.10,2013-07-21 14:03:00,
2013-07-21 10:19:00,79.0,76.0,30.07,West,259,1.0,-999.0,90,-99.99,,,0.00,weatherlink.com 1.10,2013-07-21 14:19:00,
2013-07-21 10:36:00,79.9,76.0,30.07,WSW,255,4.0,-999.0,88,-99.99,,,0.00,weatherlink.com 1.10,2013-07-21 14:36:00,
2013-07-21 10:52:00,80.6,77.0,30.07,WNW,288,8.0,-999.0,87,-99.99,,,0.00,weatherlink.com 1.10,2013-07-21 14:52:00,
2013-07-21 11:08:00,81.1,77.0,30.07,West,271,5.0,-999.0,86,-99.99,,,0.00,weatherlink.com 1.10,2013-07-21 15:08:00,
2013-07-21 11:25:00,82.1,77.0,30.07,WNW,288,3.0,-999.0,84,-99.99,,,0.00,weatherlink.com 1.10,2013-07-21 15:25:00,
2013-07-21 11:41:00,83.2,77.0,30.07,West,276,4.0,-999.0,82,-99.99,,,0.00,weatherlink.com 1.10,2013-07-21 15:41:00,
2013-07-21 11:58:00,84.5,77.0,30.07,West,259,6.0,-999.0,79,-99.99,,,0.00,weatherlink.com 1.10,2013-07-21 15:58:00,
2013-07-21 12:15:00,84.7,77.0,30.07,WSW,244,1.0,-999.0,77,-99.99,,,0.00,weatherlink.com 1.10,2013-07-21 16:15:00,
2013-07-21 12:31:00,85.2,77.0,30.06,WNW,282,3.0,-999.0,76,-99.99,,,0.00,weatherlink.com 1.10,2013-07-21 16:31:00,
2013-07-21 12:47:00,85.9,76.0,30.05,West,259,6.0,-999.0,73,-99.99,,,0.00,weatherlink.com 1.10,2013-07-21 16:47:00,
2013-07-21 13:04:00,86.8,76.0,30.05,WNW,283,6.0,-999.0,71,-99.99,,,0.00,weatherlink.com 1.10,2013-07-21 17:04:00,
2013-07-21 13:20:00,87.7,76.0,30.04,WSW,248,3.0,-999.0,69,-99.99,,,0.00,weatherlink.com 1.10,2013-07-21 17:20:00,
2013-07-21 13:37:00,88.3,76.0,30.03,West,261,6.0,-999.0,68,-99.99,,,0.00,weatherlink.com 1.10,2013-07-21 17:37:00,
2013-07-21 13:54:00,88.4,76.0,30.03,West,273,4.0,-999.0,67,-99.99,,,0.00,weatherlink.com 1.10,2013-07-21 17:54:00,
2013-07-21 14:10:00,89.2,77.0,30.02,WSW,247,1.0,-999.0,68,-99.99,,,0.00,weatherlink.com 1.10,2013-07-21 18:10:00,
2013-07-21 14:26:00,89.5,77.0,30.02,West,276,1.0,-999.0,66,-99.99,,,0.00,weatherlink.com 1.10,2013-07-21 18:26:00,
2013-07-21 14:42:00,91.0,75.0,30.01,WSW,252,1.0,-999.0,60,-99.99,,,0.00,weatherlink.com 1.10,2013-07-21 18:42:00,
2013-07-21 15:00:00,91.6,75.0,30.00,WNW,284,1.0,-999.0,58,-99.99,,,0.00,weatherlink.com 1.10,2013-07-21 19:00:00,
2013-07-21 15:16:00,91.6,75.0,30.00,West,259,1.0,-999.0,59,-99.99,,,0.00,weatherlink.com 1.10,2013-07-21 19:16:00,
2013-07-21 15:32:00,92.0,75.0,29.99,West,281,9.0,-999.0,58,-99.99,,,0.00,weatherlink.com 1.10,2013-07-21 19:32:00,
2013-07-21 15:49:00,92.8,75.0,29.98,West,263,4.0,-999.0,56,-99.99,,,0.00,weatherlink.com 1.10,2013-07-21 19:49:00,
2013-07-21 16:05:00,93.1,75.0,29.98,NW,321,1.0,-999.0,55,-99.99,,,0.00,weatherlink.com 1.10,2013-07-21 20:05:00,
2013-07-21 16:22:00,92.6,73.0,29.97,WNW,302,4.0,-999.0,53,-99.99,,,0.00,weatherlink.com 1.10,2013-07-21 20:22:00,
2013-07-21 16:38:00,92.3,73.0,29.97,West,276,7.0,-999.0,54,-99.99,,,0.00,weatherlink.com 1.10,2013-07-21 20:38:00,
2013-07-21 16:55:00,91.1,73.0,29.97,West,275,7.0,-999.0,56,-99.99,,,0.00,weatherlink.com 1.10,2013-07-21 20:55:00,
2013-07-21 17:10:00,89.6,74.0,29.98,North,11,5.0,-999.0,61,-99.99,,,0.00,weatherlink.com 1.10,2013-07-21 21:10:00,
2013-07-21 17:25:00,86.0,75.0,29.97,ESE,115,0.0,-999.0,69,-99.99,,,0.00,weatherlink.com 1.10,2013-07-21 21:25:00,
2013-07-21 17:40:00,85.6,75.0,29.98,WNW,299,2.0,-999.0,70,-99.99,,,0.00,weatherlink.com 1.10,2013-07-21 21:40:00,
2013-07-21 17:55:00,80.4,71.0,30.00,West,276,18.0,-999.0,73,-99.99,,,0.00,weatherlink.com 1.10,2013-07-21 21:55:00,
2013-07-21 18:10:00,81.4,68.0,29.98,WSW,245,3.0,-999.0,64,-99.99,,,0.25,weatherlink.com 1.10,2013-07-21 22:10:00,
2013-07-21 18:25:00,81.4,68.0,29.98,West,259,2.0,-999.0,64,-99.99,,,0.25,weatherlink.com 1.10,2013-07-21 22:25:00,
2013-07-21 18:40:00,81.4,68.0,29.98,SW,234,1.0,-999.0,63,-99.99,,,0.25,weatherlink.com 1.10,2013-07-21 22:40:00,
2013-07-21 18:55:00,81.1,67.0,30.00,WNW,292,0.0,-999.0,63,-99.99,,,0.25,weatherlink.com 1.10,2013-07-21 22:55:00,
2013-07-21 19:10:00,80.1,68.0,30.00,SSW,192,2.0,-999.0,66,-99.99,,,0.25,weatherlink.com 1.10,2013-07-21 23:10:00,
2013-07-21 19:25:00,78.8,69.0,30.00,South,170,0.0,-999.0,72,-99.99,,,0.25,weatherlink.com 1.10,2013-07-21 23:25:00,
2013-07-21 19:40:00,78.5,72.0,30.03,SSE,150,4.0,-999.0,79,-99.99,,,0.25,weatherlink.com 1.10,2013-07-21 23:40:00,
2013-07-21 19:55:00,78.0,71.0,30.03,SE,140,1.0,-999.0,79,-99.99,,,0.25,weatherlink.com 1.10,2013-07-21 23:55:00,
2013-07-21 20:11:00,78.0,71.0,30.04,SSE,167,4.0,-999.0,79,-99.99,,,0.25,weatherlink.com 1.10,2013-07-22 00:11:00,
2013-07-21 20:26:00,77.9,71.0,30.04,SSW,194,0.0,-999.0,79,-99.99,,,0.25,weatherlink.com 1.10,2013-07-22 00:26:00,
2013-07-21 20:41:00,78.0,71.0,30.05,SW,218,1.0,-999.0,79,-99.99,,,0.25,weatherlink.com 1.10,2013-07-22 00:41:00,
2013-07-21 20:56:00,78.0,71.0,30.06,SW,234,4.0,-999.0,78,-99.99,,,0.25,weatherlink.com 1.10,2013-07-22 00:56:00,
2013-07-21 21:11:00,77.8,70.0,30.07,South,169,1.0,-999.0,78,-99.99,,,0.25,weatherlink.com 1.10,2013-07-22 01:11:00,
2013-07-21 21:26:00,77.6,70.0,30.07,SW,221,1.0,-999.0,78,-99.99,,,0.25,weatherlink.com 1.10,2013-07-22 01:26:00,
2013-07-21 21:41:00,77.3,70.0,30.07,SSE,165,2.0,-999.0,79,-99.99,,,0.25,weatherlink.com 1.10,2013-07-22 01:41:00,
2013-07-21 21:56:00,77.0,71.0,30.08,WSW,250,2.0,-999.0,81,-99.99,,,0.25,weatherlink.com 1.10,2013-07-22 01:56:00,
2013-07-21 22:11:00,76.8,71.0,30.08,SW,221,3.0,-999.0,82,-99.99,,,0.25,weatherlink.com 1.10,2013-07-22 02:11:00,
2013-07-21 22:26:00,76.6,72.0,30.08,SW,236,2.0,-999.0,84,-99.99,,,0.25,weatherlink.com 1.10,2013-07-22 02:26:00,
2013-07-21 22:41:00,76.5,72.0,30.07,SW,233,3.0,-999.0,85,-99.99,,,0.25,weatherlink.com 1.10,2013-07-22 02:41:00,
2013-07-21 22:56:00,76.4,72.0,30.07,WSW,256,1.0,-999.0,86,-99.99,,,0.25,weatherlink.com 1.10,2013-07-22 02:56:00,
2013-07-21 23:11:00,76.1,72.0,30.07,WSW,247,1.0,-999.0,87,-99.99,,,0.25,weatherlink.com 1.10,2013-07-22 03:11:00,
2013-07-21 23:26:00,76.0,72.0,30.07,West,261,1.0,-999.0,87,-99.99,,,0.25,weatherlink.com 1.10,2013-07-22 03:26:00,
2013-07-21 23:41:00,75.9,72.0,30.07,WSW,249,7.0,-999.0,88,-99.99,,,0.25,weatherlink.com 1.10,2013-07-22 03:41:00,
2013-07-21 23:57:00,75.9,72.0,30.07,WSW,250,0.0,-999.0,88,-99.99,,,0.25,weatherlink.com 1.10,2013-07-22 03:57:00,